Find OneWeb SL0718

NORAD ID: 56081 Int'l Des: 2023-043 Owner: ONEWEBN Country: UK Constellation: oneweb operational
LEOCIRCULARPOLARONEWEB_TYPE

現在のビュー

3D地球を読み込み中...

About OneWeb SL0718

OneWeb SL0718 (NORAD 56081) is a oneweb constellation satellite launched Mar 26, 2023 by ONEWEBN of UK. It operates in LEO, CIRCULAR, POLAR, ONEWEB_TYPE orbit with a mass of 148.00 kg.

OneWeb SL0718について

説明を読み込み中...

次回通過

Passes for default location (London). Set your location on the main map for personalized predictions.

高度履歴

Loading altitude history...

軌道要素

1 56081U 23043AM 26169.78887735 .00000432 00000-0 11139-2 0 9995
2 56081 87.9004 258.8822 0002300 111.8090 248.3285 13.15544569156647
Epoch: Jun 18, 2026 • Age: 6 hours

現在のステータス

高度 1214.0 km
速度 7.25 km/s
衛星直下点 87.62°N, 97.15°E
打ち上げ日 Mar 26, 2023
運用期間 3.2 years
タイプ internet

技術仕様

分類 Payload
質量 148.00 kg
乾燥質量 140.00 kg
総質量 148.00 kg
長さ 1.30 m
直径 1.00 m
スパン 5.00 m
形状 Trapezoid+2 pan
製造者 ONEWUS
バスタイプ ARROW
フェーズステータス In Orbit
所有者/国 ONEWEBN/UK

Most Searched